FW8927 Weather Reports


time (UTC)temp
C
wind
direction
speed
KPH
gust
KPH
rain 1hr
cm
rain 24hr
cm
rain mn
cm
humidity
%
barometer
mb
20260508193120 20 223 6.4 24.1 0.00 0.00 0.00 45 1010.3
20260508191606 19 252 9.7 24.1 0.00 0.00 0.00 43 1010.4
20260508190110 19 232 11.3 29.0 0.00 0.00 0.00 40 1010.9
20260508184553 18 234 11.3 24.1 0.00 0.00 0.00 41 1011.0
20260508183100 18 252 6.4 24.1 0.00 0.00 0.00 43 1011.5
20260508181605 18 261 8.0 25.7 0.00 0.00 0.00 43 1011.8
20260508180058 18 215 9.7 16.1 0.00 0.00 0.00 43 1012.1
20260508174552 18 184 9.7 24.1 0.00 0.00 0.00 46 1012.4
20260508173057 18 203 3.2 27.4 0.00 0.00 0.00 45 1012.7
20260508171554 17 132 11.3 25.7 0.00 0.00 0.00 45 1012.7
20260508170100 17 221 9.7 20.9 0.00 0.00 0.00 49 1013.0
20260508164554 17 223 12.9 24.1 0.00 0.00 0.00 51 1013.3
20260508163105 17 275 9.7 20.9 0.00 0.00 0.00 51 1013.4
20260508161558 16 118 9.7 24.1 0.00 0.00 0.00 51 1013.5
20260508160055 17 242 6.4 17.7 0.00 0.00 0.00 49 1013.7
20260508154559 17 198 6.4 14.5 0.00 0.00 0.00 52 1014.0
20260508153104 16 270 6.4 16.1 0.00 0.00 0.00 52 1014.2
20260508151557 15 213 8.0 16.1 0.00 0.00 0.00 51 1014.3
20260508150055 15 196 6.4 19.3 0.00 0.00 0.00 51 1014.2
20260508144553 15 272 11.3 22.5 0.00 0.00 0.00 51 1014.2
20260508143114 14 241 6.4 17.7 0.00 0.00 0.00 59 1013.9
20260508141558 13 240 4.8 19.3 0.00 0.00 0.00 62 1014.3
20260508140112 12 189 4.8 12.9 0.00 0.00 0.00 66 1014.3
20260508134554 11 165 6.4 12.9 0.00 0.00 0.00 70 1014.1
20260508133052 10 221 4.8 11.3 0.00 0.00 0.00 74 1014.1
20260508131555 9 219 6.4 11.3 0.00 0.00 0.00 79 1014.1
20260508130053 8 200 6.4 9.7 0.00 0.00 0.00 81 1014.2
20260508124555 7 178 4.8 9.7 0.00 0.00 0.00 85 1014.3
20260508123054 6 206 3.2 11.3 0.00 0.00 0.00 89 1014.3
20260508121553 5 201 6.4 11.3 0.00 0.00 0.00 91 1014.2
20260508120113 4 210 4.8 8.0 0.00 0.00 0.00 94 1014.2
20260508114604 3 204 1.6 4.8 0.00 0.00 0.00 97 1014.0
20260508113104 2 165 1.6 3.2 0.00 0.00 0.00 97 1014.0
20260508111556 1 0 0.0 0.0 0.00 0.00 0.00 96 1013.9
20260508104550 1 0 0.0 0.0 0.00 0.00 0.00 95 1013.6
20260508103057 1 0 0.0 0.0 0.00 0.00 0.00 95 1013.7
20260508101556 1 0 0.0 0.0 0.00 0.00 0.00 96 1013.6
20260508100129 2 0 0.0 0.0 0.00 0.00 0.00 96 1013.5
20260508094559 1 0 0.0 1.6 0.00 0.00 0.00 96 1013.4
20260508093101 1 0 0.0 1.6 0.00 0.00 0.00 95 1013.4
20260508091610 1 0 0.0 0.0 0.00 0.00 0.00 95 1013.5
20260508090057 1 0 0.0 0.0 0.00 0.00 0.00 95 1013.5
20260508084554 1 0 0.0 0.0 0.00 0.00 0.00 95 1013.3
20260508083053 1 0 0.0 0.0 0.00 0.00 0.00 95 1013.2
20260508081611 1 0 0.0 0.0 0.00 0.00 0.00 94 1013.3
20260508080055 2 0 0.0 0.0 0.00 0.00 0.00 94 1013.1
20260508074559 2 0 0.0 0.0 0.00 0.00 0.00 93 1013.0
20260508073053 2 0 0.0 0.0 0.00 0.00 0.00 93 1013.0
20260508071556 2 0 0.0 0.0 0.00 0.00 0.00 93 1013.0
20260508070059 2 0 0.0 4.8 0.00 0.00 0.00 93 1013.1
20260508064555 2 0 0.0 0.0 0.00 0.00 0.00 92 1013.2
20260508063056 3 0 0.0 0.0 0.00 0.00 0.00 92 1013.4
20260508061604 3 0 0.0 0.0 0.00 0.00 0.00 91 1013.3
20260508060106 3 0 0.0 0.0 0.00 0.00 0.00 91 1013.4
20260508054638 3 0 0.0 0.0 0.00 0.00 0.00 90 1013.5
20260508053057 3 0 0.0 0.0 0.00 0.00 0.00 89 1013.5
20260508051554 4 0 0.0 0.0 0.00 0.00 0.00 88 1013.4
20260508050053 4 0 0.0 0.0 0.00 0.00 0.00 88 1013.4
20260508044554 4 0 0.0 0.0 0.00 0.00 0.00 87 1013.2
20260508043058 5 0 0.0 0.0 0.00 0.00 0.00 89 1013.3
20260508041554 5 0 0.0 0.0 0.00 0.00 0.00 88 1013.4
20260508040056 5 0 0.0 0.0 0.00 0.00 0.00 86 1013.3
20260508034553 6 0 0.0 0.0 0.00 0.00 0.00 85 1013.2
20260508033054 6 0 0.0 0.0 0.00 0.00 0.00 83 1013.3
20260508031556 7 0 0.0 0.0 0.00 0.00 0.00 81 1013.4
20260508030058 7 0 0.0 0.0 0.00 0.00 0.00 78 1013.3
20260508024605 8 0 0.0 0.0 0.00 0.00 0.00 73 1013.3
20260508023052 8 0 0.0 0.0 0.00 0.00 0.00 69 1013.2
20260508021602 8 0 0.0 1.6 0.00 0.00 0.00 68 1013.0
20260508020103 8 0 0.0 3.2 0.00 0.00 0.00 69 1012.7
20260508014606 8 36 0.0 3.2 0.00 0.00 0.00 69 1012.4
20260508013056 9 322 0.0 3.2 0.00 0.00 0.00 69 1012.3
20260508011606 10 315 0.0 3.2 0.00 0.00 0.00 61 1012.1
20260508010053 10 315 0.0 3.2 0.00 0.00 0.00 56 1011.8
20260508004553 11 311 0.0 4.8 0.00 0.00 0.00 51 1011.8
20260508003058 12 0 0.0 3.2 0.00 0.00 0.00 50 1011.5
20260508001553 12 0 0.0 4.8 0.00 0.00 0.00 48 1011.4
20260508000052 13 0 1.6 6.4 0.00 0.00 0.00 45 1011.4
20260507234553 13 344 1.6 14.5 0.00 0.00 0.00 44 1011.4
20260507233053 14 350 3.2 12.9 0.00 0.00 0.00 42 1011.3
20260507231554 15 0 3.2 14.5 0.00 0.00 0.00 41 1011.1
20260507230056 15 291 3.2 9.7 0.00 0.00 0.00 41 1011.2
20260507224553 15 276 4.8 16.1 0.00 0.00 0.00 42 1011.2
20260507223055 15 288 4.8 20.9 0.00 0.00 0.00 43 1011.2
20260507221555 16 72 1.6 6.4 0.00 0.00 0.00 42 1011.3
20260507220055 15 293 6.4 16.1 0.00 0.00 0.00 40 1011.1
20260507214554 16 277 3.2 17.7 0.00 0.00 0.00 43 1011.0
20260507213052 16 0 8.0 19.3 0.00 0.00 0.00 42 1010.9
20260507211556 16 319 3.2 16.1 0.00 0.00 0.00 45 1010.9
20260507210059 16 306 4.8 22.5 0.00 0.00 0.00 45 1010.7
20260507204556 16 320 8.0 20.9 0.00 0.00 0.00 44 1010.5
20260507203058 15 317 8.0 19.3 0.00 0.00 0.00 46 1010.7
20260507201557 15 279 12.9 24.1 0.00 0.00 0.00 44 1010.7
20260507200056 16 250 4.8 24.1 0.00 0.00 0.00 47 1010.5
20260507194556 16 261 8.0 17.7 0.00 0.00 0.00 45 1010.8